QPF
0.08 0.11 0.13 0.09 0.07 0.05 0.04 0.03 0.03 0.03 0.03 0.02 0.02 0.03 0.06 0.07 0.06 0.04 0.05 0.09 0.09 0.06 0.04 0.04 0.04 0.05 0.06 0.07 0.07 0.05 0.05 0.07 0.10 0.11 0.16 0.21 0.17 0.13 0.10 0.09 0.08 0.08 0.07
0.04 0.08 0.11 0.08 0.05 0.05 0.04 0.02 0.02 0.02 0.01 0.02 0.03 0.04 0.06 0.09 0.12 0.11 0.09 0.08 0.08 0.05 0.05 0.06 0.05 0.05 0.05 0.06 0.06 0.06 0.07 0.07 0.08 0.10 0.12 0.21 0.26 0.18 0.12 0.12 0.10 0.08 0.09
0.04 0.07 0.10 0.08 0.07 0.05 0.03 0.02 0.02 0.02 0.02 0.03 0.04 0.04 0.05 0.12 0.14 0.12 0.10 0.07 0.06 0.05 0.06 0.07 0.05 0.05 0.05 0.06 0.06 0.07 0.06 0.06 0.06 0.09 0.09 0.11 0.21 0.19 0.14 0.13 0.12 0.09 0.10
0.08 0.09 0.10 0.10 0.07 0.05 0.03 0.02 0.02 0.02 0.02 0.03 0.04 0.04 0.04 0.08 0.14 0.16 0.13 0.11 0.09 0.07 0.07 0.06 0.05 0.05 0.07 0.07 0.05 0.06 0.08 0.07 0.07 0.08 0.07 0.05 0.08 0.10 0.09 0.14 0.13 0.08 0.08
0.08 0.09 0.11 0.09 0.06 0.03 0.02 0.02 0.02 0.02 0.02 0.02 0.03 0.03 0.03 0.04 0.07 0.12 0.13 0.16 0.14 0.10 0.08 0.07 0.05 0.05 0.06 0.05 0.04 0.05 0.08 0.10 0.10 0.08 0.06 0.04 0.06 0.07 0.08 0.16 0.13 0.09 0.08
0.09 0.07 0.10 0.10 0.06 0.04 0.03 0.02 0.02 0.02 0.02 0.02 0.02 0.03 0.03 0.03 0.05 0.09 0.16 0.14 0.11 0.09 0.09 0.08 0.06 0.06 0.04 0.04 0.05 0.05 0.06 0.11 0.13 0.07 0.05 0.04 0.03 0.05 0.09 0.15 0.12 0.09 0.07
0.09 0.09 0.12 0.11 0.06 0.05 0.04 0.03 0.02 0.01 0.01 0.03 0.02 0.03 0.03 0.04 0.05 0.07 0.09 0.08 0.07 0.07 0.07 0.07 0.07 0.06 0.05 0.06 0.06 0.06 0.08 0.10 0.12 0.07 0.04 0.03 0.02 0.03 0.08 0.13 0.13 0.09 0.08
0.05 0.07 0.12 0.13 0.08 0.05 0.04 0.03 0.03 0.02 0.01 0.03 0.03 0.03 0.03 0.05 0.07 0.06 0.05 0.05 0.04 0.05 0.06 0.05 0.05 0.04 0.04 0.06 0.07 0.07 0.07 0.08 0.11 0.08 0.04 0.04 0.03 0.03 0.07 0.09 0.08 0.07 0.08
0.06 0.08 0.13 0.12 0.09 0.07 0.05 0.04 0.04 0.03 0.02 0.04 0.04 0.04 0.03 0.05 0.05 0.04 0.04 0.04 0.04 0.04 0.04 0.03 0.04 0.04 0.04 0.05 0.05 0.06 0.07 0.07 0.08 0.07 0.05 0.04 0.04 0.04 0.06 0.05 0.04 0.04 0.06
0.07 0.08 0.10 0.08 0.06 0.05 0.06 0.05 0.05 0.05 0.03 0.04 0.05 0.05 0.04 0.04 0.04 0.04 0.03 0.03 0.04 0.04 0.04 0.04 0.05 0.06 0.06 0.06 0.06 0.07 0.08 0.08 0.07 0.06 0.06 0.05 0.05 0.06 0.06 0.04 0.04 0.04 0.04
0.05 0.05 0.05 0.04 0.03 0.03 0.04 0.05 0.05 0.04 0.03 0.04 0.06 0.08 0.05 0.02 0.02 0.02 0.03 0.04 0.05 0.05 0.05 0.05 0.05 0.05 0.07 0.06 0.06 0.05 0.07 0.07 0.10 0.08 0.08 0.06 0.05 0.06 0.06 0.04 0.03 0.04 0.04
0.05 0.04 0.04 0.03 0.03 0.03 0.03 0.03 0.03 0.02 0.01 0.02 0.03 0.04 0.03 0.02 0.01 0.01 0.05 0.07 0.06 0.05 0.06 0.06 0.06 0.06 0.06 0.05 0.05 0.06 0.05 0.05 0.06 0.08 0.08 0.05 0.05 0.04 0.05 0.04 0.03 0.03 0.03
0.05 0.04 0.04 0.04 0.04 0.02 0.02 0.02 0.02 0.02 0.02 0.02 0.02 0.02 0.02 0.01 0.01 0.02 0.05 0.08 0.10 0.07 0.05 0.05 0.04 0.03 0.03 0.03 0.03 0.04 0.04 0.07 0.07 0.07 0.07 0.03 0.03 0.03 0.03 0.03 0.03 0.02 0.03
0.06 0.06 0.05 0.05 0.04 0.02 0.02 0.02 0.02 0.02 0.01 0.01 0.03 0.03 0.01 0.01 0.01 0.02 0.04 0.05 0.10 0.10 0.06 0.03 0.02 0.02 0.02 0.03 0.03 0.03 0.03 0.04 0.04 0.04 0.08 0.06 0.03 0.03 0.03 0.02 0.03 0.02 0.03
0.04 0.05 0.06 0.05 0.03 0.02 0.02 0.02 0.01 0.02 0.02 0.02 0.02 0.02 0.01 0.02 0.02 0.02 0.04 0.04 0.05 0.05 0.04 0.03 0.03 0.03 0.03 0.03 0.02 0.02 0.03 0.03 0.06 0.04 0.08 0.07 0.04 0.04 0.04 0.03 0.03 0.03 0.03
0.04 0.05 0.07 0.09 0.05 0.03 0.03 0.02 0.01 0.01 0.02 0.03 0.02 0.01 0.01 0.01 0.01 0.01 0.03 0.04 0.04 0.03 0.03 0.04 0.06 0.05 0.05 0.03 0.02 0.01 0.02 0.02 0.04 0.06 0.06 0.06 0.04 0.04 0.04 0.04 0.04 0.04 0.03
0.05 0.06 0.10 0.14 0.09 0.05 0.04 0.03 0.01 0.02 0.02 0.01 0.02 0.02 0.01 0.02 0.02 0.01 0.03 0.05 0.06 0.04 0.04 0.05 0.05 0.04 0.03 0.03 0.02 0.02 0.02 0.02 0.03 0.05 0.05 0.04 0.03 0.03 0.04 0.05 0.05 0.04 0.03
0.05 0.05 0.06 0.10 0.10 0.07 0.05 0.04 0.03 0.02 0.01 0.01 0.02 0.02 0.02 0.02 0.02 0.03 0.02 0.04 0.06 0.07 0.06 0.03 0.02 0.02 0.02 0.02 0.02 0.03 0.02 0.03 0.03 0.03 0.03 0.03 0.03 0.03 0.03 0.05 0.06 0.05 0.03
0.03 0.02 0.02 0.03 0.04 0.04 0.04 0.03 0.03 0.02 0.01 0.01 0.01 0.01 0.02 0.02 0.02 0.02 0.02 0.02 0.02 0.05 0.06 0.03 0.01 0.01 0.02 0.03 0.03 0.02 0.02 0.03 0.05 0.03 0.02 0.02 0.02 0.03 0.03 0.05 0.06 0.05 0.03
0.02 0.01 0.01 0.01 0.01 0.01 0.02 0.03 0.02 0.02 0.02 0.02 0.01 0.02 0.01 0.01 0.01 0.01 0.01 0.02 0.02 0.03 0.05 0.04 0.02 0.02 0.02 0.02 0.03 0.03 0.03 0.04 0.05 0.05 0.03 0.03 0.04 0.04 0.05 0.06 0.07 0.06 0.04
0.02 0.02 0.04 0.04 0.02 0.01 0.01 0.01 0.01 0.01 0.02 0.02 0.02 0.02 0.01 0.01 0.01 0.01 0.00 0.01 0.02 0.03 0.05 0.05 0.03 0.03 0.03 0.04 0.05 0.06 0.08 0.09 0.08 0.07 0.06 0.04 0.04 0.05 0.08 0.09 0.08 0.07 0.04
0.02 0.04 0.07 0.06 0.03 0.02 0.02 0.01 0.01 0.00 0.01 0.01 0.01 0.01 0.01 0.01 0.02 0.01 0.01 0.01 0.01 0.01 0.03 0.05 0.05 0.03 0.03 0.04 0.05 0.06 0.09 0.13 0.12 0.12 0.10 0.07 0.06 0.06 0.06 0.08 0.09 0.09 0.06
0.02 0.03 0.03 0.03 0.02 0.02 0.03 0.03 0.02 0.01 0.01 0.01 0.02 0.01 0.01 0.01 0.03 0.02 0.02 0.02 0.01 0.01 0.03 0.06 0.06 0.04 0.05 0.05 0.04 0.04 0.06 0.07 0.09 0.11 0.12 0.11 0.10 0.08 0.06 0.06 0.08 0.07 0.06
0.02 0.02 0.02 0.02 0.02 0.01 0.01 0.02 0.03 0.02 0.01 0.02 0.02 0.03 0.03 0.03 0.04 0.03 0.03 0.03 0.03 0.03 0.04 0.04 0.03 0.05 0.07 0.06 0.05 0.05 0.06 0.05 0.05 0.06 0.09 0.11 0.10 0.11 0.12 0.09 0.07 0.06 0.06
0.03 0.02 0.02 0.02 0.03 0.02 0.01 0.02 0.01 0.01 0.02 0.03 0.04 0.05 0.05 0.05 0.04 0.04 0.05 0.05 0.05 0.05 0.04 0.04 0.04 0.05 0.08 0.09 0.08 0.08 0.08 0.07 0.06 0.05 0.06 0.06 0.07 0.09 0.10 0.09 0.08 0.08 0.09
0.03 0.03 0.03 0.03 0.04 0.03 0.02 0.02 0.01 0.01 0.01 0.02 0.04 0.04 0.03 0.03 0.03 0.04 0.05 0.05 0.06 0.06 0.06 0.06 0.06 0.06 0.07 0.07 0.09 0.10 0.11 0.08 0.07 0.06 0.04 0.04 0.05 0.06 0.07 0.06 0.07 0.07 0.05
MSLP
1010.46 1010.18 1010.07 1010.17 1010.45 1010.84 1011.25 1011.60 1011.85 1012.00 1012.07 1012.14 1012.28 1012.53 1012.91 1013.40 1013.92 1014.41 1014.79 1015.03 1015.11 1015.08 1015.00 1014.93 1014.92 1015.02 1015.21 1015.47 1015.73 1015.95 1016.09 1016.13 1016.10 1016.00 1015.89 1015.80 1015.74 1015.73 1015.75 1015.81 1015.87 1015.94 1016.02
1010.37 1010.16 1010.13 1010.30 1010.64 1011.07 1011.50 1011.87 1012.11 1012.25 1012.33 1012.40 1012.55 1012.82 1013.22 1013.71 1014.24 1014.72 1015.09 1015.31 1015.38 1015.33 1015.24 1015.16 1015.14 1015.22 1015.38 1015.60 1015.82 1016.00 1016.12 1016.16 1016.12 1016.04 1015.94 1015.86 1015.80 1015.78 1015.79 1015.82 1015.87 1015.92 1015.99
1010.20 1010.06 1010.10 1010.36 1010.77 1011.25 1011.72 1012.11 1012.37 1012.52 1012.61 1012.70 1012.86 1013.14 1013.53 1014.01 1014.51 1014.96 1015.29 1015.49 1015.54 1015.50 1015.40 1015.33 1015.30 1015.36 1015.49 1015.66 1015.83 1015.97 1016.05 1016.07 1016.03 1015.97 1015.90 1015.85 1015.82 1015.81 1015.81 1015.83 1015.86 1015.91 1015.97
1010.05 1009.97 1010.09 1010.42 1010.90 1011.43 1011.95 1012.37 1012.66 1012.84 1012.95 1013.05 1013.22 1013.48 1013.85 1014.28 1014.72 1015.11 1015.40 1015.56 1015.60 1015.57 1015.49 1015.43 1015.42 1015.46 1015.56 1015.67 1015.79 1015.87 1015.91 1015.90 1015.87 1015.84 1015.81 1015.80 1015.80 1015.81 1015.83 1015.85 1015.87 1015.91 1015.98
1010.02 1010.00 1010.19 1010.59 1011.11 1011.69 1012.23 1012.67 1012.99 1013.19 1013.32 1013.44 1013.60 1013.84 1014.16 1014.53 1014.89 1015.21 1015.44 1015.56 1015.59 1015.56 1015.51 1015.48 1015.48 1015.52 1015.59 1015.66 1015.71 1015.73 1015.73 1015.71 1015.68 1015.67 1015.68 1015.71 1015.76 1015.80 1015.83 1015.86 1015.88 1015.92 1016.00
1010.20 1010.24 1010.49 1010.92 1011.47 1012.06 1012.60 1013.03 1013.35 1013.56 1013.70 1013.83 1013.99 1014.21 1014.48 1014.77 1015.05 1015.29 1015.44 1015.52 1015.54 1015.52 1015.50 1015.50 1015.52 1015.57 1015.61 1015.64 1015.64 1015.61 1015.56 1015.51 1015.49 1015.50 1015.55 1015.63 1015.71 1015.77 1015.82 1015.84 1015.86 1015.90 1015.98
1010.63 1010.72 1011.00 1011.45 1011.99 1012.54 1013.03 1013.44 1013.73 1013.92 1014.07 1014.20 1014.36 1014.56 1014.79 1015.02 1015.22 1015.37 1015.46 1015.49 1015.49 1015.48 1015.48 1015.51 1015.56 1015.61 1015.64 1015.63 1015.59 1015.52 1015.43 1015.37 1015.34 1015.37 1015.44 1015.54 1015.65 1015.72 1015.77 1015.78 1015.79 1015.81 1015.89
1011.30 1011.43 1011.73 1012.16 1012.64 1013.11 1013.53 1013.85 1014.09 1014.26 1014.40 1014.54 1014.70 1014.89 1015.09 1015.28 1015.42 1015.50 1015.52 1015.51 1015.48 1015.46 1015.48 1015.52 1015.59 1015.65 1015.68 1015.66 1015.59 1015.48 1015.37 1015.29 1015.26 1015.29 1015.37 1015.48 1015.58 1015.65 1015.68 1015.66 1015.64 1015.64 1015.69
1012.12 1012.30 1012.60 1012.98 1013.38 1013.74 1014.04 1014.27 1014.42 1014.55 1014.67 1014.82 1015.00 1015.20 1015.40 1015.56 1015.65 1015.68 1015.65 1015.58 1015.52 1015.49 1015.50 1015.56 1015.64 1015.71 1015.74 1015.71 1015.63 1015.52 1015.39 1015.30 1015.26 1015.29 1015.36 1015.45 1015.53 1015.57 1015.56 1015.50 1015.43 1015.39 1015.41
1013.01 1013.22 1013.51 1013.83 1014.13 1014.38 1014.55 1014.65 1014.72 1014.79 1014.89 1015.05 1015.25 1015.48 1015.68 1015.84 1015.91 1015.90 1015.82 1015.71 1015.61 1015.55 1015.55 1015.61 1015.69 1015.77 1015.82 1015.81 1015.74 1015.63 1015.51 1015.41 1015.36 1015.37 1015.42 1015.48 1015.53 1015.52 1015.45 1015.34 1015.21 1015.11 1015.09
1013.84 1014.08 1014.37 1014.63 1014.83 1014.96 1015.01 1015.00 1014.98 1015.00 1015.08 1015.24 1015.47 1015.72 1015.94 1016.10 1016.17 1016.14 1016.03 1015.88 1015.74 1015.65 1015.63 1015.68 1015.77 1015.86 1015.93 1015.95 1015.91 1015.83 1015.73 1015.64 1015.58 1015.57 1015.59 1015.60 1015.59 1015.52 1015.40 1015.22 1015.04 1014.88 1014.81
1014.51 1014.79 1015.07 1015.29 1015.42 1015.45 1015.40 1015.30 1015.22 1015.19 1015.25 1015.41 1015.65 1015.91 1016.16 1016.33 1016.40 1016.35 1016.23 1016.05 1015.89 1015.77 1015.73 1015.77 1015.87 1015.99 1016.09 1016.16 1016.16 1016.13 1016.06 1015.98 1015.93 1015.89 1015.86 1015.83 1015.75 1015.63 1015.44 1015.22 1014.98 1014.78 1014.66
1014.95 1015.27 1015.56 1015.75 1015.84 1015.82 1015.71 1015.56 1015.43 1015.37 1015.41 1015.56 1015.79 1016.06 1016.30 1016.48 1016.55 1016.51 1016.38 1016.20 1016.03 1015.91 1015.86 1015.90 1016.01 1016.16 1016.31 1016.43 1016.50 1016.52 1016.50 1016.45 1016.39 1016.33 1016.26 1016.17 1016.04 1015.85 1015.62 1015.35 1015.08 1014.84 1014.69
1015.15 1015.50 1015.79 1015.99 1016.07 1016.04 1015.92 1015.76 1015.61 1015.54 1015.56 1015.68 1015.89 1016.14 1016.37 1016.54 1016.61 1016.58 1016.47 1016.31 1016.15 1016.04 1016.01 1016.07 1016.21 1016.40 1016.60 1016.79 1016.93 1017.01 1017.04 1017.02 1016.96 1016.87 1016.76 1016.62 1016.43 1016.20 1015.93 1015.64 1015.35 1015.11 1014.94
1015.11 1015.47 1015.78 1015.99 1016.10 1016.10 1016.02 1015.89 1015.77 1015.69 1015.69 1015.78 1015.94 1016.14 1016.34 1016.48 1016.56 1016.55 1016.47 1016.36 1016.25 1016.18 1016.19 1016.29 1016.47 1016.70 1016.96 1017.21 1017.42 1017.57 1017.65 1017.65 1017.60 1017.49 1017.34 1017.15 1016.92 1016.65 1016.36 1016.07 1015.78 1015.54 1015.37
1014.88 1015.23 1015.54 1015.78 1015.94 1016.01 1016.00 1015.94 1015.87 1015.81 1015.79 1015.84 1015.93 1016.07 1016.20 1016.32 1016.40 1016.42 1016.40 1016.36 1016.33 1016.33 1016.41 1016.55 1016.78 1017.06 1017.38 1017.69 1017.95 1018.16 1018.28 1018.32 1018.27 1018.14 1017.96 1017.73 1017.46 1017.17 1016.87 1016.59 1016.33 1016.11 1015.95
1014.54 1014.85 1015.15 1015.42 1015.63 1015.78 1015.87 1015.91 1015.90 1015.88 1015.85 1015.84 1015.87 1015.92 1015.99 1016.07 1016.15 1016.22 1016.28 1016.33 1016.39 1016.49 1016.64 1016.85 1017.12 1017.45 1017.81 1018.16 1018.48 1018.73 1018.89 1018.96 1018.92 1018.78 1018.58 1018.31 1018.02 1017.72 1017.43 1017.16 1016.93 1016.75 1016.62
1014.15 1014.41 1014.68 1014.95 1015.22 1015.46 1015.66 1015.80 1015.87 1015.89 1015.86 1015.80 1015.75 1015.72 1015.73 1015.77 1015.86 1015.98 1016.12 1016.27 1016.45 1016.65 1016.88 1017.15 1017.47 1017.82 1018.21 1018.59 1018.94 1019.23 1019.43 1019.52 1019.50 1019.37 1019.16 1018.89 1018.58 1018.28 1018.00 1017.75 1017.56 1017.41 1017.31
1013.79 1013.97 1014.19 1014.46 1014.77 1015.09 1015.39 1015.63 1015.79 1015.85 1015.82 1015.72 1015.60 1015.50 1015.44 1015.46 1015.55 1015.72 1015.94 1016.20 1016.48 1016.78 1017.09 1017.41 1017.75 1018.13 1018.52 1018.91 1019.29 1019.61 1019.85 1019.98 1019.99 1019.89 1019.69 1019.43 1019.13 1018.84 1018.57 1018.35 1018.19 1018.07 1018.01
1013.49 1013.59 1013.75 1014.00 1014.33 1014.70 1015.09 1015.42 1015.65 1015.76 1015.74 1015.62 1015.45 1015.28 1015.17 1015.16 1015.26 1015.47 1015.76 1016.12 1016.49 1016.87 1017.23 1017.58 1017.94 1018.31 1018.70 1019.09 1019.48 1019.83 1020.11 1020.30 1020.37 1020.31 1020.16 1019.93 1019.66 1019.39 1019.15 1018.96 1018.82 1018.74 1018.69
1013.28 1013.30 1013.39 1013.60 1013.93 1014.34 1014.78 1015.18 1015.48 1015.64 1015.63 1015.50 1015.29 1015.08 1014.93 1014.89 1015.00 1015.24 1015.59 1016.01 1016.45 1016.87 1017.27 1017.64 1017.99 1018.34 1018.71 1019.10 1019.49 1019.88 1020.21 1020.46 1020.61 1020.63 1020.55 1020.38 1020.17 1019.94 1019.74 1019.57 1019.46 1019.40 1019.36
1013.12 1013.08 1013.12 1013.29 1013.59 1014.01 1014.49 1014.94 1015.29 1015.49 1015.51 1015.38 1015.15 1014.91 1014.73 1014.68 1014.77 1015.03 1015.40 1015.85 1016.33 1016.78 1017.18 1017.54 1017.87 1018.19 1018.53 1018.91 1019.32 1019.73 1020.13 1020.46 1020.70 1020.83 1020.84 1020.77 1020.63 1020.46 1020.30 1020.18 1020.09 1020.04 1020.02
1012.98 1012.91 1012.91 1013.03 1013.30 1013.72 1014.20 1014.68 1015.07 1015.30 1015.36 1015.24 1015.02 1014.77 1014.57 1014.50 1014.58 1014.82 1015.19 1015.64 1016.12 1016.56 1016.95 1017.28 1017.58 1017.87 1018.18 1018.55 1018.96 1019.42 1019.87 1020.29 1020.64 1020.88 1021.01 1021.04 1021.00 1020.91 1020.81 1020.73 1020.67 1020.64 1020.62
1012.81 1012.74 1012.70 1012.79 1013.03 1013.42 1013.89 1014.38 1014.80 1015.07 1015.16 1015.08 1014.87 1014.63 1014.42 1014.33 1014.38 1014.59 1014.94 1015.37 1015.81 1016.23 1016.59 1016.88 1017.14 1017.40 1017.69 1018.04 1018.46 1018.95 1019.46 1019.96 1020.40 1020.76 1021.01 1021.16 1021.22 1021.23 1021.20 1021.17 1021.14 1021.13 1021.13
1012.55 1012.50 1012.45 1012.51 1012.72 1013.07 1013.53 1014.02 1014.46 1014.76 1014.89 1014.85 1014.68 1014.46 1014.25 1014.14 1014.16 1014.34 1014.64 1015.01 1015.42 1015.79 1016.11 1016.38 1016.61 1016.84 1017.11 1017.45 1017.87 1018.37 1018.92 1019.48 1020.00 1020.45 1020.81 1021.07 1021.24 1021.34 1021.40 1021.43 1021.46 1021.48 1021.50
1012.17 1012.14 1012.10 1012.14 1012.31 1012.63 1013.07 1013.56 1014.01 1014.35 1014.53 1014.54 1014.42 1014.22 1014.03 1013.91 1013.90 1014.03 1014.27 1014.60 1014.95 1015.28 1015.58 1015.82 1016.03 1016.24 1016.49 1016.81 1017.22 1017.72 1018.28 1018.87 1019.44 1019.96 1020.40 1020.75 1021.02 1021.22 1021.37 1021.48 1021.56 1021.63 1021.68
Thickness
5802 5806 5807 5807 5807 5806 5806 5805 5805 5804 5803 5803 5802 5802 5801 5799 5798 5796 5794 5792 5790 5789 5787 5785 5784 5783 5781 5779 5778 5777 5775 5774 5773 5771 5770 5769 5767 5765 5764 5763 5761 5760 5759
5807 5808 5808 5807 5807 5806 5805 5805 5804 5803 5803 5802 5801 5800 5799 5798 5797 5795 5793 5792 5790 5788 5787 5785 5783 5782 5781 5779 5777 5776 5775 5773 5771 5770 5769 5768 5766 5764 5763 5762 5760 5759 5757
5808 5808 5808 5807 5806 5805 5805 5804 5803 5803 5802 5801 5800 5799 5798 5798 5798 5795 5793 5791 5789 5788 5786 5784 5783 5782 5780 5779 5777 5775 5774 5772 5770 5769 5768 5766 5765 5763 5762 5761 5759 5758 5756
5809 5808 5808 5807 5806 5805 5804 5803 5803 5802 5801 5801 5799 5798 5797 5796 5796 5794 5792 5790 5789 5787 5785 5784 5782 5781 5780 5778 5776 5775 5773 5771 5770 5768 5767 5766 5765 5763 5762 5760 5759 5757 5755
5809 5809 5808 5807 5806 5805 5804 5803 5802 5801 5800 5800 5799 5798 5797 5795 5794 5793 5791 5789 5788 5786 5784 5783 5782 5780 5779 5777 5776 5774 5773 5771 5769 5768 5766 5765 5764 5763 5762 5760 5758 5756 5754
5809 5809 5808 5807 5805 5804 5803 5802 5801 5801 5800 5799 5798 5797 5796 5795 5794 5792 5791 5789 5787 5786 5784 5783 5781 5779 5778 5777 5775 5774 5772 5770 5768 5767 5766 5765 5764 5763 5761 5760 5758 5756 5754
5809 5809 5808 5806 5805 5804 5803 5802 5801 5800 5799 5798 5797 5796 5795 5794 5793 5792 5790 5789 5787 5785 5783 5782 5781 5779 5778 5777 5775 5774 5773 5770 5768 5767 5766 5765 5764 5763 5761 5760 5758 5756 5754
5812 5808 5807 5806 5805 5804 5803 5802 5801 5799 5798 5797 5796 5795 5794 5793 5792 5792 5790 5788 5787 5785 5783 5782 5780 5779 5778 5776 5775 5775 5773 5771 5768 5767 5766 5765 5764 5763 5761 5759 5757 5755 5753
5811 5808 5807 5805 5804 5803 5802 5801 5800 5799 5798 5796 5796 5795 5794 5793 5791 5790 5789 5788 5786 5784 5783 5782 5780 5779 5778 5776 5775 5774 5773 5770 5768 5767 5765 5764 5763 5762 5761 5759 5757 5755 5753
5809 5807 5806 5806 5805 5804 5803 5801 5800 5799 5798 5796 5795 5794 5793 5792 5790 5789 5788 5787 5786 5784 5783 5782 5781 5779 5778 5777 5776 5775 5773 5770 5768 5766 5765 5764 5763 5762 5760 5759 5757 5754 5753
5806 5806 5806 5805 5805 5804 5803 5801 5800 5798 5797 5796 5794 5793 5792 5791 5790 5788 5787 5787 5786 5785 5784 5783 5782 5780 5779 5777 5776 5775 5773 5770 5768 5766 5764 5764 5763 5761 5760 5758 5756 5755 5753
5803 5805 5806 5805 5805 5804 5803 5801 5799 5797 5796 5795 5794 5792 5791 5790 5789 5788 5787 5786 5786 5786 5785 5783 5782 5780 5779 5777 5776 5774 5772 5770 5768 5766 5765 5764 5763 5761 5759 5758 5756 5755 5753
5807 5807 5807 5807 5806 5804 5802 5800 5798 5796 5795 5794 5793 5792 5791 5789 5788 5787 5786 5785 5785 5785 5784 5783 5781 5779 5778 5777 5776 5774 5772 5770 5768 5766 5765 5764 5763 5761 5759 5757 5756 5755 5753
5807 5807 5808 5808 5806 5804 5802 5800 5798 5796 5794 5793 5792 5791 5790 5789 5787 5786 5785 5784 5784 5783 5782 5781 5779 5779 5777 5776 5775 5774 5772 5770 5768 5767 5766 5765 5763 5761 5759 5758 5756 5755 5753
5809 5808 5809 5809 5806 5804 5803 5800 5798 5796 5794 5793 5792 5791 5790 5789 5787 5786 5785 5784 5783 5782 5781 5779 5778 5778 5776 5775 5775 5774 5772 5770 5769 5767 5766 5765 5763 5762 5760 5758 5756 5755 5753
5811 5809 5809 5808 5807 5805 5803 5800 5798 5796 5795 5793 5792 5791 5790 5789 5787 5786 5785 5783 5782 5782 5781 5779 5778 5777 5776 5775 5773 5773 5772 5771 5769 5767 5766 5765 5763 5761 5760 5758 5756 5754 5753
5813 5811 5809 5808 5807 5804 5802 5800 5798 5797 5795 5793 5792 5791 5790 5788 5787 5786 5784 5782 5781 5781 5780 5778 5777 5775 5774 5773 5772 5771 5771 5770 5768 5767 5766 5764 5763 5761 5760 5758 5756 5754 5752
5815 5812 5810 5809 5806 5804 5802 5800 5799 5797 5795 5793 5792 5791 5790 5788 5787 5785 5783 5782 5781 5780 5779 5777 5775 5772 5771 5770 5769 5769 5769 5768 5768 5767 5765 5763 5762 5760 5759 5758 5756 5754 5752
5818 5814 5811 5809 5806 5805 5803 5801 5799 5797 5795 5794 5793 5791 5790 5789 5787 5785 5783 5781 5780 5779 5777 5776 5773 5771 5769 5767 5767 5767 5767 5766 5766 5766 5764 5762 5761 5760 5759 5757 5755 5753 5751
5819 5816 5813 5810 5808 5806 5803 5800 5797 5796 5795 5794 5793 5791 5790 5788 5787 5784 5782 5780 5779 5777 5775 5774 5772 5770 5768 5766 5766 5764 5764 5764 5763 5762 5762 5761 5760 5758 5757 5755 5753 5751 5749
5817 5814 5812 5809 5807 5805 5801 5797 5794 5791 5792 5791 5791 5790 5789 5787 5785 5783 5781 5779 5778 5775 5774 5772 5770 5767 5764 5764 5760 5756 5758 5760 5759 5759 5759 5758 5757 5756 5754 5753 5751 5749 5747
5816 5813 5811 5809 5807 5805 5803 5801 5797 5794 5792 5791 5790 5789 5788 5786 5784 5782 5780 5777 5776 5774 5772 5770 5767 5763 5761 5761 5755 5749 5745 5747 5752 5755 5754 5753 5753 5752 5750 5749 5748 5747 5745
5816 5814 5813 5809 5807 5806 5804 5801 5797 5793 5790 5787 5786 5786 5786 5785 5783 5781 5779 5776 5774 5772 5769 5768 5766 5762 5757 5756 5755 5749 5740 5736 5740 5745 5748 5748 5748 5747 5746 5745 5744 5743 5741
5818 5817 5814 5811 5808 5806 5804 5799 5794 5788 5784 5784 5784 5784 5784 5783 5781 5779 5777 5775 5772 5770 5767 5766 5764 5761 5757 5751 5751 5751 5748 5743 5736 5733 5737 5741 5743 5742 5742 5742 5740 5739 5738
5818 5815 5813 5810 5807 5805 5802 5798 5793 5789 5786 5785 5783 5781 5780 5780 5779 5777 5775 5772 5770 5768 5765 5763 5761 5758 5755 5750 5747 5745 5743 5741 5738 5731 5727 5731 5734 5737 5738 5738 5737 5735 5734
5815 5813 5811 5807 5804 5802 5799 5796 5792 5788 5785 5782 5780 5778 5777 5776 5775 5774 5772 5770 5767 5765 5762 5760 5757 5754 5752 5750 5747 5744 5740 5736 5733 5730 5725 5724 5725 5729 5732 5733 5732 5731 5729